Canby, MN

7:54 PM CDT on March 27, 2017 (GMT -0500)
Canby

Weather History for KCNB - January, 2014

Change the Weather History Date:

Tuesday, January 21, 2014

  Actual Average (KMML) Record (KMML)
Temperature  
Mean Temperature 2 °F -  
Max Temperature 16 °F 28 °F 52 °F (1981)
Min Temperature -13 °F 7 °F -28 °F (1970)
Degree Days  
Heating Degree Days 64    
Moisture  
Dew Point -6 °F    
Average Humidity 73    
Maximum Humidity 86    
Minimum Humidity 51    
Precipitation  
Precipitation 0.00 in - - ()
Sea Level Pressure  
Sea Level Pressure 30.22 in    
Wind  
Wind Speed 7 mph (SW)    
Max Wind Speed 23 mph    
Max Gust Speed 28 mph    
Visibility 9 miles    
Events Snow    
Averages and records for this station are not official NWS values.
T = Trace of Precipitation, MM = Missing Value Source: NWS Daily Summary

Daily Weather History Graph

Daily Weather History Graph

Search for Another Location

Airport or City:

Trip Planner

Search our weather history database for the weather conditions in past years. The results will help you decide how hot, cold, wet, or windy it might be!

Date:

Astronomy

Jan. 21, 2014 Rise Set
Actual Time 7:54 AM CST 5:18 PM CST
Civil Twilight 7:22 AM CST 5:50 PM CST
Nautical Twilight 6:46 AM CST 6:26 PM CST
Astronomical Twilight 6:12 AM CST 7:01 PM CST
Moon 11:08 PM CST (1/21) 10:10 AM CST (1/21)
Length of Visible Light 10h 27m
Length of Day
9h 23m
Waning Gibbous, 74% of the Moon is Illuminated
Jan 21
Waning Gibbous
Jan 23
Last Quarter
Jan 30
New
Feb 6
First Quarter
Feb 14
Full

Hourly Weather History & Observations

Time (CST) Temp. Windchill Dew Point Humidity Pressure Visibility Wind Dir Wind Speed Gust Speed Precip Events Conditions
12:15 AM -10.3 °F -29.0 °F -17.5 °F 71% 30.55 in 10.0 mi NW 10.4 mph - N/A   Clear
12:35 AM -10.5 °F -28.1 °F -17.0 °F 73% 30.54 in 10.0 mi NW 9.2 mph - N/A   Clear
12:54 AM -10.3 °F -27.9 °F -16.6 °F 74% 30.53 in 10.0 mi NNW 9.2 mph - N/A   Clear
1:14 AM -10.3 °F -26.7 °F -16.6 °F 74% 30.52 in 10.0 mi NNW 8.1 mph - N/A   Clear
1:34 AM -10.5 °F -28.1 °F -16.8 °F 74% 30.52 in 10.0 mi NW 9.2 mph - N/A   Clear
1:54 AM -10.7 °F -24.2 °F -17.3 °F 72% 30.52 in 10.0 mi NW 5.8 mph - N/A   Clear
2:15 AM -12.3 °F -24.2 °F -17.9 °F 76% 30.50 in 10.0 mi WNW 4.6 mph - N/A   Clear
2:35 AM -12.5 °F -24.4 °F -18.2 °F 76% 30.50 in 10.0 mi West 4.6 mph - N/A   Clear
2:55 AM -12.5 °F -24.4 °F -18.0 °F 76% 30.51 in 10.0 mi West 4.6 mph - N/A   Clear
3:15 AM -12.6 °F -24.6 °F -18.4 °F 75% 30.50 in 10.0 mi West 4.6 mph - N/A   Clear
3:35 AM -13.0 °F -27.0 °F -18.9 °F 75% 30.49 in 10.0 mi WNW 5.8 mph - N/A   Clear
3:54 AM -13.0 °F -22.7 °F -18.9 °F 75% 30.47 in 10.0 mi WNW 3.5 mph - N/A   Clear
4:14 AM -12.3 °F -24.2 °F -18.6 °F 74% 30.47 in 10.0 mi WSW 4.6 mph - N/A   Clear
4:35 AM -12.3 °F - -18.4 °F 74% 30.45 in 10.0 mi Calm Calm - N/A   Clear
4:55 AM -12.8 °F -22.5 °F -18.4 °F 76% 30.44 in 10.0 mi WSW 3.5 mph - N/A   Clear
5:15 AM -12.3 °F -21.9 °F -18.0 °F 76% 30.43 in 10.0 mi SW 3.5 mph - N/A   Clear
5:34 AM -11.7 °F - -18.0 °F 74% 30.43 in 10.0 mi Calm Calm - N/A   Clear
5:54 AM -11.2 °F -23.0 °F -17.7 °F 73% 30.42 in 10.0 mi SW 4.6 mph - N/A   Clear
6:15 AM -10.5 °F - -17.5 °F 71% 30.41 in 10.0 mi Calm Calm - N/A   Clear
6:34 AM -10.1 °F - -16.8 °F 72% 30.40 in 10.0 mi Calm Calm - N/A   Clear
6:55 AM -9.6 °F - -16.2 °F 73% 30.40 in 10.0 mi Calm Calm - N/A   Scattered Clouds
7:15 AM -8.7 °F - -15.3 °F 73% 30.39 in 10.0 mi Calm Calm - N/A   Mostly Cloudy
7:35 AM -7.1 °F -21.4 °F -15.0 °F 68% 30.38 in 10.0 mi SW 6.9 mph - N/A   Overcast
7:54 AM -7.2 °F -20.1 °F -15.3 °F 68% 30.37 in 10.0 mi SSW 5.8 mph - N/A   Overcast
8:15 AM -6.7 °F -15.5 °F -14.4 °F 69% 30.36 in 10.0 mi SSW 3.5 mph - N/A   Overcast
8:35 AM -6.0 °F -16.9 °F -14.1 °F 68% 30.34 in 10.0 mi South 4.6 mph - N/A   Overcast
8:54 AM -5.3 °F -16.0 °F -13.9 °F 66% 30.34 in 10.0 mi SSW 4.6 mph - N/A   Overcast
9:15 AM -4.5 °F -13.0 °F -13.4 °F 66% 30.32 in 10.0 mi South 3.5 mph - N/A   Overcast
9:35 AM -3.5 °F -15.7 °F -12.6 °F 65% 30.31 in 10.0 mi South 5.8 mph - N/A   Overcast
9:54 AM -2.0 °F -13.9 °F -11.9 °F 63% 30.29 in 10.0 mi South 5.8 mph - N/A   Overcast
10:15 AM -0.6 °F -16.9 °F -11.6 °F 60% 30.28 in 10.0 mi South 10.4 mph - N/A   Overcast
10:34 AM 0.1 °F -14.0 °F -11.4 °F 58% 30.26 in 10.0 mi South 8.1 mph - N/A   Overcast
10:54 AM 0.5 °F -13.6 °F -10.7 °F 59% 30.24 in 10.0 mi SSE 8.1 mph - N/A   Overcast
11:15 AM 1.2 °F -12.7 °F -10.1 °F 59% 30.23 in 10.0 mi South 8.1 mph - N/A   Overcast
11:34 AM 2.5 °F -11.1 °F -9.2 °F 58% 30.22 in 10.0 mi South 8.1 mph - N/A   Overcast
11:54 AM 3.7 °F -8.4 °F -9.8 °F 54% 30.20 in 10.0 mi SSW 6.9 mph - N/A   Overcast
12:15 PM 4.6 °F -7.4 °F -9.9 °F 51% 30.17 in 10.0 mi SSE 6.9 mph 18.4 mph N/A   Overcast
12:34 PM 4.1 °F -9.2 °F -10.3 °F 51% 30.14 in 10.0 mi South 8.1 mph - N/A   Overcast
12:54 PM 4.6 °F -8.5 °F -8.3 °F 55% 30.12 in 10.0 mi South 8.1 mph - N/A   Overcast
1:15 PM 5.0 °F -9.1 °F -8.0 °F 55% 30.11 in 10.0 mi South 9.2 mph - N/A   Overcast
1:34 PM 5.0 °F -9.1 °F -5.6 °F 62% 30.10 in 2.5 mi SSE 9.2 mph - N/A Snow Light Snow
1:55 PM 4.6 °F -12.8 °F -1.1 °F 77% 30.06 in 0.8 mi SSE 13.8 mph - N/A Snow Light Snow
2:15 PM 5.0 °F -13.6 °F 0.7 °F 82% 30.03 in 0.5 mi SE 16.1 mph - N/A Snow Snow
2:34 PM 5.0 °F -11.6 °F 1.2 °F 84% 30.02 in 0.5 mi SSE 12.7 mph 19.6 mph N/A Snow Light Snow
2:54 PM 5.7 °F -11.4 °F 2.1 °F 85% 30.01 in 1.0 mi SE 13.8 mph - N/A Snow Light Snow
3:15 PM 5.9 °F -9.7 °F 2.1 °F 84% 30.03 in 0.8 mi South 11.5 mph - N/A Snow Snow
3:35 PM 6.4 °F -6.3 °F 3.0 °F 86% 30.05 in 0.8 mi SSW 8.1 mph - N/A Snow Light Snow
3:54 PM 6.8 °F -6.9 °F 3.2 °F 85% 30.05 in 1.2 mi SSW 9.2 mph - N/A Snow Light Snow
4:14 PM 7.3 °F -5.2 °F 2.3 °F 80% 30.05 in 3.0 mi SSW 8.1 mph - N/A Snow Light Snow
4:35 PM 7.5 °F -5.0 °F 1.6 °F 77% 30.04 in 10.0 mi SSW 8.1 mph - N/A Snow Light Snow
4:54 PM 7.5 °F -1.1 °F 1.2 °F 75% 30.05 in 10.0 mi SSW 4.6 mph - N/A Snow Light Snow
5:15 PM 7.7 °F -0.9 °F 0.9 °F 74% 30.04 in 10.0 mi SSW 4.6 mph - N/A   Overcast
5:34 PM 8.1 °F -2.0 °F 0.9 °F 72% 30.04 in 10.0 mi South 5.8 mph - N/A   Overcast
5:54 PM 8.1 °F -0.5 °F 0.5 °F 71% 30.04 in 10.0 mi SSW 4.6 mph - N/A   Overcast
6:15 PM 8.4 °F -0.1 °F 1.0 °F 72% 30.04 in 10.0 mi SSW 4.6 mph - N/A   Overcast
6:34 PM 8.6 °F 2.0 °F 1.4 °F 73% 30.03 in 10.0 mi SW 3.5 mph - N/A   Overcast
6:55 PM 9.1 °F 0.8 °F 1.8 °F 72% 30.02 in 10.0 mi SW 4.6 mph - N/A   Overcast
7:14 PM 9.9 °F 3.4 °F 3.0 °F 74% 30.02 in 10.0 mi WSW 3.5 mph - N/A   Overcast
7:34 PM 10.8 °F 1.2 °F 3.9 °F 74% 30.02 in 10.0 mi West 5.8 mph - N/A   Overcast
7:55 PM 11.7 °F -1.7 °F 5.4 °F 76% 30.01 in 10.0 mi West 10.4 mph - N/A   Overcast
8:14 PM 13.1 °F 0.1 °F 7.3 °F 78% 30.00 in 10.0 mi West 10.4 mph - N/A   Overcast
8:34 PM 14.2 °F -0.6 °F 8.8 °F 79% 30.00 in 10.0 mi West 13.8 mph - N/A   Overcast
8:55 PM 14.7 °F -0.5 °F 9.5 °F 80% 30.00 in 10.0 mi West 15.0 mph - N/A   Overcast
9:15 PM 15.3 °F 0.8 °F 10.4 °F 81% 30.00 in 10.0 mi WNW 13.8 mph - N/A   Overcast
9:35 PM 15.3 °F 1.4 °F 10.8 °F 82% 29.99 in 10.0 mi WNW 12.7 mph - N/A Snow Light Snow
9:55 PM 16.7 °F 0.1 °F 12.7 °F 84% 29.99 in 10.0 mi NW 19.6 mph 26.5 mph N/A Snow Light Snow
10:14 PM 16.7 °F 1.5 °F 12.2 °F 82% 30.00 in 10.0 mi NW 16.1 mph 24.2 mph N/A Snow Light Snow
10:34 PM 16.3 °F 0.5 °F 11.1 °F 80% 30.01 in 10.0 mi NW 17.3 mph 26.5 mph N/A   Overcast
10:54 PM 15.6 °F -2.6 °F 10.4 °F 80% 30.01 in 10.0 mi NNW 23.0 mph 27.6 mph N/A   Overcast
11:15 PM 15.3 °F -0.4 °F 10.4 °F 81% 30.01 in 10.0 mi NNW 16.1 mph 23.0 mph N/A Snow Light Snow
11:35 PM 14.9 °F 0.3 °F 10.9 °F 84% 30.01 in 5.0 mi NNW 13.8 mph 19.6 mph N/A Snow Light Snow
11:54 PM 14.9 °F 0.9 °F 11.5 °F 86% 30.02 in 5.0 mi NNW 12.7 mph 18.4 mph N/A Snow Light Snow